| time (UTC) | temp F | wind direction | speed knots | gust knots | rain 1hr in | rain 24hr in | rain mn in | humidity % | barometer mb |
| 20260504081600 | 38 | 0 | 0.0 | 0.0 | 0.00 | 0.00 | 0.00 | 92 | 1015.6 |
| 20260504060106 | 39 | 0 | 0.0 | 0.0 | 0.00 | 0.00 | 0.00 | 90 | 1015.4 |
| 20260504050103 | 39 | 0 | 0.0 | 0.0 | 0.00 | 0.00 | 0.00 | 89 | 1015.5 |
| 20260504044551 | 39 | 0 | 0.0 | 0.0 | 0.00 | 0.00 | 0.00 | 88 | 1015.6 |
| 20260504043101 | 40 | 0 | 0.0 | 0.0 | 0.00 | 0.00 | 0.00 | 87 | 1015.4 |
| 20260504041547 | 40 | 0 | 0.0 | 0.0 | 0.00 | 0.00 | 0.00 | 86 | 1015.3 |
| 20260504040050 | 40 | 0 | 0.0 | 0.9 | 0.00 | 0.00 | 0.00 | 85 | 1015.3 |
| 20260504034546 | 41 | 0 | 0.0 | 0.0 | 0.00 | 0.00 | 0.00 | 84 | 1015.2 |
| 20260504033051 | 41 | 0 | 0.0 | 0.0 | 0.00 | 0.00 | 0.00 | 84 | 1015.0 |
| 20260504031556 | 42 | 0 | 0.0 | 0.0 | 0.00 | 0.00 | 0.00 | 83 | 1015.0 |
| 20260504030051 | 42 | 0 | 0.0 | 0.0 | 0.00 | 0.00 | 0.00 | 82 | 1015.0 |
| 20260504024548 | 43 | 0 | 0.0 | 0.0 | 0.00 | 0.00 | 0.00 | 80 | 1015.0 |
| 20260504023053 | 44 | 0 | 0.0 | 0.0 | 0.00 | 0.00 | 0.00 | 79 | 1015.0 |
| 20260504021546 | 44 | 0 | 0.0 | 0.0 | 0.00 | 0.00 | 0.00 | 77 | 1015.0 |
| 20260504020047 | 45 | 0 | 0.0 | 0.0 | 0.00 | 0.00 | 0.00 | 75 | 1015.1 |
| 20260504014558 | 46 | 0 | 0.0 | 0.0 | 0.00 | 0.00 | 0.00 | 72 | 1014.9 |
| 20260504013053 | 47 | 0 | 0.0 | 0.0 | 0.00 | 0.00 | 0.00 | 71 | 1014.9 |
| 20260504011549 | 48 | 0 | 0.0 | 0.0 | 0.00 | 0.00 | 0.00 | 69 | 1014.8 |
| 20260504010104 | 49 | 0 | 0.0 | 0.0 | 0.00 | 0.00 | 0.00 | 66 | 1014.5 |
| 20260504004545 | 51 | 0 | 0.0 | 0.0 | 0.00 | 0.00 | 0.00 | 64 | 1014.5 |
| 20260504003051 | 53 | 0 | 0.0 | 0.0 | 0.00 | 0.00 | 0.00 | 58 | 1014.3 |
| 20260504001558 | 55 | 0 | 0.0 | 0.9 | 0.00 | 0.00 | 0.00 | 58 | 1013.9 |
| 20260504000050 | 56 | 0 | 0.0 | 0.0 | 0.00 | 0.00 | 0.00 | 45 | 1013.9 |
| 20260503234551 | 57 | 0 | 0.0 | 1.7 | 0.00 | 0.00 | 0.00 | 41 | 1013.7 |
| 20260503233053 | 57 | 0 | 1.7 | 8.7 | 0.00 | 0.00 | 0.00 | 41 | 1013.7 |
| 20260503231552 | 58 | 0 | 0.9 | 7.0 | 0.00 | 0.00 | 0.00 | 40 | 1013.6 |
| 20260503230055 | 58 | 294 | 1.7 | 14.8 | 0.00 | 0.00 | 0.00 | 37 | 1013.5 |
| 20260503224552 | 59 | 0 | 1.7 | 7.8 | 0.00 | 0.00 | 0.00 | 38 | 1013.5 |
| 20260503223051 | 59 | 314 | 1.7 | 9.6 | 0.00 | 0.00 | 0.00 | 38 | 1013.5 |
| 20260503221559 | 59 | 285 | 3.5 | 12.2 | 0.00 | 0.00 | 0.00 | 37 | 1013.4 |
| 20260503220105 | 59 | 280 | 3.5 | 11.3 | 0.00 | 0.00 | 0.00 | 39 | 1013.6 |
| 20260503214554 | 59 | 319 | 2.6 | 9.6 | 0.00 | 0.00 | 0.00 | 37 | 1013.4 |
| 20260503213053 | 59 | 242 | 2.6 | 10.4 | 0.00 | 0.00 | 0.00 | 36 | 1013.5 |
| 20260503211552 | 59 | 313 | 5.2 | 13.9 | 0.00 | 0.00 | 0.00 | 34 | 1013.4 |
| 20260503210056 | 59 | 228 | 3.5 | 10.4 | 0.00 | 0.00 | 0.00 | 35 | 1013.5 |
| 20260503204606 | 59 | 340 | 4.3 | 10.4 | 0.00 | 0.00 | 0.00 | 38 | 1013.5 |
| 20260503203100 | 58 | 234 | 4.3 | 12.2 | 0.00 | 0.00 | 0.00 | 37 | 1013.6 |
| 20260503201554 | 58 | 225 | 2.6 | 9.6 | 0.00 | 0.00 | 0.00 | 40 | 1013.6 |
| 20260503200051 | 57 | 304 | 2.6 | 16.5 | 0.00 | 0.00 | 0.00 | 40 | 1013.7 |
| 20260503194607 | 57 | 263 | 4.3 | 20.0 | 0.00 | 0.00 | 0.00 | 40 | 1013.9 |
| 20260503193051 | 56 | 339 | 2.6 | 12.2 | 0.00 | 0.00 | 0.00 | 42 | 1014.1 |
| 20260503191601 | 56 | 213 | 3.5 | 10.4 | 0.00 | 0.00 | 0.00 | 41 | 1014.2 |
| 20260503190059 | 57 | 196 | 5.2 | 11.3 | 0.00 | 0.00 | 0.00 | 41 | 1014.5 |
| 20260503184551 | 56 | 316 | 3.5 | 13.0 | 0.00 | 0.00 | 0.00 | 42 | 1014.3 |
| 20260503183101 | 56 | 290 | 2.6 | 13.9 | 0.00 | 0.00 | 0.00 | 42 | 1014.6 |
| 20260503181550 | 55 | 313 | 5.2 | 12.2 | 0.00 | 0.00 | 0.00 | 41 | 1014.7 |
| 20260503174551 | 55 | 311 | 7.8 | 13.9 | 0.00 | 0.00 | 0.00 | 40 | 1014.6 |
| 20260503173136 | 55 | 322 | 4.3 | 13.9 | 0.00 | 0.00 | 0.00 | 40 | 1014.7 |
| 20260503171550 | 54 | 310 | 6.1 | 14.8 | 0.00 | 0.00 | 0.00 | 42 | 1015.0 |